Orbital Elements at Epoch 2459200.5 (2020-Dec-17.0) TDB
Reference: JPL 14 (heliocentric ecliptic J2000)
Element | Value | Uncertainty (1-sigma) | Units |
e | .1980021476332643 | 3.8705e-08 | |
a | 2.351755322995489 | 1.1556e-08 | au |
q | 1.886102718334421 | 9.411e-08 | au |
i | .6442615972169966 | 4.5555e-06 | deg |
node | 297.4681182671841 | 0.00056321 | deg |
peri | 18.89398108863316 | 0.00056353 | deg |
M | 101.3974411619732 | 2.0639e-05 | deg |
tp | 2458829.468207031170 (2019-Dec-11.96820703) | 7.4067e-05 | TDB |
period | 1317.305880090312 3.61 | 9.7095e-06 2.658e-08 | d yr |
n | .2732850474905031 | 2.0143e-09 | deg/d |
Q | 2.817407927656557 | 1.3844e-08 | au |
|
| | Orbit Determination Parameters
Additional Information
|